Temperature
18 17 17 17 17 17 17 17 17 16 16 16 16 15 15 15 15 15 14 14 14 14 14 14 14 14 13 13 13 13 13 13 13 13 13 13 13 13 13 13 13 13 13
18 18 17 17 17 17 17 17 16 16 16 16 16 15 15 15 15 15 15 14 14 14 14 14 14 13 13 13 13 13 13 13 13 13 13 13 13 13 13 13 13 13 12
18 18 18 17 17 17 17 17 16 16 16 16 16 16 15 15 15 15 15 14 14 14 14 14 14 14 13 13 13 13 13 13 13 12 13 13 13 13 12 12 12 12 12
18 18 18 18 17 17 17 17 16 16 16 16 16 16 15 15 15 15 15 14 14 14 14 14 14 14 14 14 13 13 13 13 13 12 12 13 13 13 12 12 12 12 12
18 18 18 18 17 17 17 17 17 16 16 16 16 16 16 15 15 15 15 15 14 14 14 14 14 14 14 14 13 13 13 13 13 12 12 12 12 12 12 12 12 12 12
19 18 18 18 18 17 17 17 17 16 16 16 16 16 16 16 15 15 15 15 15 15 14 14 14 14 14 14 14 13 13 13 13 13 12 12 12 12 12 12 12 11 12
19 19 18 18 18 18 17 17 17 16 16 16 16 16 16 16 15 15 15 15 14 14 14 14 14 14 14 14 14 13 13 13 13 13 12 13 12 12 12 12 11 11 11
19 19 18 18 18 18 17 17 17 17 16 16 16 16 16 16 15 15 15 14 14 14 14 14 14 14 14 14 14 13 13 13 13 13 13 13 12 12 12 11 11 11 11
19 19 18 18 18 18 17 17 17 17 16 16 16 16 15 15 15 15 15 14 14 14 14 14 14 14 14 14 13 13 13 13 13 13 13 12 12 12 12 11 11 11 11
19 19 19 18 18 18 17 17 17 16 16 16 16 16 15 15 15 15 14 14 14 14 14 14 14 14 14 13 13 13 13 13 13 13 12 12 12 12 12 11 11 11 11
19 18 18 18 18 17 17 17 17 16 16 15 15 15 15 15 15 15 14 14 14 14 14 14 14 14 13 13 13 13 13 12 12 12 12 12 12 12 12 12 11 11 11
18 18 18 17 17 17 17 16 16 16 16 15 15 15 15 15 14 14 14 14 14 14 14 14 14 13 13 13 12 12 12 12 12 12 12 12 12 12 12 12 11 11 11
17 17 17 17 16 16 16 16 16 15 15 15 14 14 15 14 14 14 14 14 13 13 13 13 13 13 12 12 12 12 12 11 11 11 11 11 12 12 11 11 11 11 11
16 16 16 16 16 15 15 15 15 15 14 14 14 14 14 14 14 14 13 13 13 13 13 12 12 12 12 12 12 12 11 11 11 11 11 11 11 11 11 11 11 11 11
15 15 15 15 15 15 15 14 14 14 14 14 14 14 14 13 13 13 13 13 12 12 12 12 12 12 11 11 11 11 11 11 11 11 11 11 11 11 11 11 11 11 10
14 14 14 14 14 14 14 13 13 13 13 13 13 13 13 13 12 12 12 12 12 12 11 11 11 11 11 11 11 11 11 11 10 10 10 10 10 10 10 10 10 10 10
14 14 14 13 13 13 13 13 13 13 13 12 12 12 12 12 12 12 11 11 11 11 11 11 11 10 10 10 10 10 10 10 10 10 10 10 10 10 10 10 10 10 10
13 13 13 13 13 13 12 12 12 12 12 12 12 12 12 11 11 11 11 11 11 10 10 10 10 10 10 10 10 9 9 9 9 9 9 9 9 9 9 9 9 9 9
12 12 12 12 12 12 12 12 12 12 12 11 11 11 11 11 11 11 10 10 10 10 10 10 9 9 9 9 9 9 9 9 9 9 9 9 9 9 9 9 9 9 9
12 12 12 12 11 11 11 11 11 11 11 11 11 10 10 10 10 10 10 9 9 9 9 9 9 8 8 8 8 8 8 8 8 8 8 8 8 8 8 8 8 8 8
11 11 11 11 11 11 11 11 11 10 10 10 10 10 9 9 9 9 9 9 8 8 8 8 8 8 8 8 8 7 7 7 7 7 7 7 8 8 8 8 8 8 8
11 11 11 10 10 10 10 10 10 10 10 9 9 9 9 9 8 8 8 8 8 7 7 7 7 7 7 7 7 7 7 7 7 6 7 7 7 7 7 7 7 7 7
10 10 10 10 10 10 9 9 9 9 9 9 9 8 8 8 8 8 7 7 7 7 7 7 7 7 6 6 6 6 6 6 6 6 6 6 6 6 6 6 6 6 7
9 9 9 9 9 9 9 8 8 8 8 8 8 8 7 7 7 7 7 7 6 6 6 6 6 6 6 6 6 6 6 6 6 5 5 5 5 6 6 6 6 6 6
9 9 8 8 8 8 8 7 7 7 7 7 7 7 7 6 6 6 6 6 6 6 6 5 5 5 5 5 5 5 5 5 5 5 5 5 5 5 5 5 5 5 5
8 8 8 7 7 7 7 7 6 6 6 6 6 6 6 6 5 5 5 5 5 5 5 5 5 5 5 5 5 5 5 5 5 5 5 4 5 5 5 5 5 5 5
Wind_Speed
11 9 9 9 9 9 9 9 9 8 9 10 9 8 8 7 6 6 5 5 6 5 4 4 4 3 2 2 1 2 2 3 3 4 3 3 3 4 6 9 11 11 13
11 10 10 9 9 9 9 9 9 9 9 10 9 9 8 8 7 7 7 6 7 6 6 5 5 4 4 3 3 3 2 3 4 4 3 3 4 4 5 5 7 9 10
11 11 10 10 10 10 10 9 9 10 9 9 9 9 8 8 8 8 7 7 7 7 7 7 7 6 5 4 4 4 3 3 3 3 4 3 3 3 3 4 4 4 8
12 12 12 12 12 11 10 10 10 10 10 9 9 9 9 8 8 8 8 7 7 7 7 8 8 7 7 7 6 6 5 4 3 3 4 4 4 4 2 3 4 3 4
14 13 13 12 11 10 10 10 9 10 10 9 8 8 8 8 9 9 8 9 8 7 7 7 8 9 11 9 6 6 6 4 4 4 4 3 4 4 4 3 4 4 5
15 14 13 11 11 11 11 11 10 9 9 9 9 9 9 9 12 14 11 8 8 8 8 8 8 9 11 13 13 12 10 8 7 5 5 6 7 6 5 4 4 4 5
14 14 13 13 12 12 13 11 12 11 10 10 10 10 10 11 14 14 15 10 8 8 9 8 8 8 9 8 10 13 13 15 13 9 8 9 8 7 5 6 6 6 7
14 13 13 13 13 12 11 12 12 10 10 10 10 10 9 11 15 15 15 10 8 9 9 9 9 9 8 8 8 8 9 10 12 11 10 11 11 9 8 8 8 7 7
12 12 13 13 13 12 12 11 9 8 8 8 8 9 10 10 13 14 12 6 7 9 9 9 9 9 12 12 8 9 10 10 14 18 19 18 19 19 13 5 5 5 7
11 11 10 11 11 11 11 10 7 8 9 9 8 9 9 9 10 12 12 6 7 8 7 8 11 12 12 11 8 8 11 12 9 8 10 14 14 16 17 11 9 8 7
8 7 7 8 10 10 9 8 7 8 8 8 8 7 8 9 10 12 13 8 8 8 7 7 7 11 12 12 10 10 14 12 7 7 8 8 8 8 9 10 10 10 10
5 6 6 6 7 6 7 7 7 7 7 7 6 6 5 6 8 10 13 14 10 7 7 6 6 9 11 11 10 12 15 11 6 6 7 8 9 10 10 10 11 13 14
6 5 4 4 4 4 5 5 4 4 5 5 5 5 4 4 4 8 10 13 12 8 7 9 10 11 10 9 12 14 11 7 6 7 9 10 10 10 8 7 8 9 10
6 5 4 4 3 3 3 3 4 4 4 4 5 5 4 3 4 3 4 6 8 8 8 8 10 11 9 10 10 9 7 7 8 9 9 10 8 7 8 8 8 8 7
5 4 4 3 3 2 2 2 3 4 5 6 6 5 5 5 6 6 5 4 5 6 4 3 4 4 5 6 7 7 7 6 7 8 9 9 8 8 9 8 7 7 7
6 5 3 3 2 2 2 2 2 1 2 4 4 4 4 4 3 3 4 5 5 5 4 4 6 7 8 8 7 7 7 7 8 8 8 8 8 8 8 7 6 7 9
5 3 3 2 2 2 2 2 1 3 4 2 1 0 2 1 1 2 3 4 4 4 3 5 6 7 7 7 7 7 7 7 7 7 7 7 7 7 7 7 7 7 8
5 5 4 2 2 2 2 1 1 1 1 2 2 1 1 2 2 2 2 1 1 2 4 5 6 7 7 7 7 7 7 7 6 6 7 7 7 6 7 7 7 8 8
5 3 3 3 2 2 2 1 1 1 0 0 1 2 2 2 1 2 1 1 3 4 4 5 6 6 7 7 7 6 7 7 7 6 6 7 6 6 7 7 7 10 9
4 6 5 3 3 3 2 2 2 2 1 1 1 2 1 1 1 2 2 3 4 4 5 5 6 6 6 6 6 6 6 6 6 6 6 6 6 6 7 8 7 7 8
4 4 6 4 3 2 2 2 2 1 1 1 1 1 0 0 1 2 2 3 3 4 5 5 5 5 5 5 5 6 6 5 5 5 5 6 6 6 6 6 7 7 7
3 3 3 3 3 3 2 2 2 2 2 1 2 3 3 1 1 2 3 3 4 4 4 4 5 5 5 5 6 6 5 5 5 5 6 6 6 6 6 6 7 7 7
4 4 4 4 4 5 4 4 3 3 3 2 2 2 3 2 2 3 3 4 4 4 4 4 5 5 5 5 5 5 5 6 5 6 6 6 6 6 6 7 7 7 7
4 4 4 4 4 4 4 4 4 3 3 3 3 3 3 3 4 4 4 4 4 5 5 5 5 6 8 6 4 5 5 5 5 5 7 7 8 7 7 7 8 8 8
4 4 4 4 4 4 4 4 4 4 4 4 4 4 4 4 5 5 5 5 6 6 7 6 5 6 8 8 7 6 8 8 8 7 6 6 8 9 8 9 8 9 8
4 4 3 3 3 3 3 3 4 4 4 4 4 4 4 5 5 6 6 6 6 6 7 6 8 9 10 9 9 9 9 9 9 9 7 6 8 9 9 8 10 9 10
Wind_Direction
177 176 171 174 171 167 172 178 177 175 170 171 173 172 175 177 175 171 178 177 181 193 193 189 204 195 187 190 162 152 160 158 202 269 266 278 283 286 290 277 274 270 271
180 178 177 176 172 171 177 178 174 172 173 173 173 176 183 186 183 183 192 188 191 201 207 201 214 206 204 207 194 199 201 189 188 245 278 281 273 274 273 279 282 279 274
181 180 180 180 179 180 181 177 173 171 172 174 174 182 189 190 190 195 196 197 200 206 207 205 212 202 214 216 212 215 222 212 189 212 259 266 273 280 293 295 293 293 292
184 184 186 188 187 185 181 178 177 176 177 181 184 187 191 193 195 199 199 205 209 213 212 209 209 203 209 212 215 218 218 220 217 224 253 269 273 283 281 284 299 294 290
186 189 192 191 186 182 181 182 181 183 187 186 187 194 198 198 205 203 203 207 210 218 223 220 218 214 212 209 211 211 208 215 221 229 247 264 270 275 263 252 265 283 283
187 192 191 187 186 189 189 188 186 190 190 188 195 200 206 214 215 209 203 209 211 215 224 229 231 228 229 226 224 215 203 206 214 221 235 241 254 250 250 246 252 276 287
189 192 191 189 191 196 196 191 194 196 194 196 202 205 212 219 217 214 212 207 211 217 221 226 237 235 228 231 237 236 229 224 215 213 226 237 242 239 236 250 244 240 250
188 191 192 193 197 198 194 195 199 199 200 202 207 208 213 222 218 217 216 211 217 223 223 221 227 238 236 227 234 243 244 242 235 228 229 239 239 236 226 235 244 254 261
188 191 191 192 194 194 197 199 199 196 201 205 206 209 216 227 221 220 215 212 224 232 233 230 227 235 243 236 232 244 256 260 253 240 236 240 243 244 236 231 244 248 268
186 186 185 185 186 191 195 196 195 198 206 207 210 211 214 226 226 218 208 212 229 240 244 243 237 237 244 241 232 238 252 259 259 259 247 250 250 253 246 228 230 238 249
180 171 172 178 186 191 192 193 195 198 202 207 214 217 217 224 227 218 207 209 224 235 243 247 244 243 246 247 239 237 245 252 257 253 256 257 254 249 246 234 224 227 236
143 153 170 181 188 189 184 191 192 192 198 205 213 222 227 228 226 223 215 214 217 224 238 243 246 250 253 256 249 245 250 253 249 250 255 258 258 256 252 242 235 231 233
118 132 144 143 147 148 162 176 177 183 194 203 208 220 228 222 218 214 212 216 220 225 242 245 252 260 265 263 256 254 255 246 238 245 252 256 254 254 254 253 251 244 244
113 117 120 121 123 130 145 156 166 181 195 203 208 218 227 228 230 221 218 222 227 235 250 259 263 266 261 256 261 261 246 237 237 246 253 257 258 255 254 250 255 256 257
83 86 93 106 123 130 136 158 179 206 204 203 212 208 207 228 237 223 218 222 221 227 229 247 255 261 264 263 262 261 256 250 247 249 253 260 260 259 260 253 246 246 246
75 68 69 75 87 97 96 57 7 278 251 219 216 210 215 216 221 220 237 253 249 225 198 240 249 252 255 259 261 265 260 255 252 249 250 251 254 256 262 260 248 244 250
73 66 60 59 65 71 81 94 4 348 17 24 13 205 208 219 198 209 228 243 241 194 212 247 254 256 258 258 258 260 263 261 256 251 252 252 252 253 254 258 256 250 251
62 57 60 63 64 71 87 117 160 206 314 329 329 283 256 250 250 245 210 147 243 210 235 251 259 261 262 261 262 261 262 264 262 259 257 258 255 253 253 254 252 250 254
52 46 48 54 53 58 61 67 68 68 77 289 329 331 288 250 252 265 204 234 257 260 256 257 260 265 268 268 266 265 263 264 264 262 260 259 257 254 255 254 254 257 257
31 35 49 52 50 48 47 56 53 51 43 22 340 305 316 36 357 310 261 255 260 267 268 267 269 270 269 270 270 270 269 267 267 264 264 263 262 259 261 261 259 260 259
20 22 33 41 40 40 42 44 42 47 25 5 322 317 32 93 278 282 281 274 267 269 274 274 274 276 275 274 273 270 270 273 272 272 273 272 272 271 266 262 261 260 263
27 28 28 29 29 31 27 22 19 21 10 3 339 345 4 11 322 303 294 287 276 270 270 273 276 276 275 277 278 274 270 274 279 280 277 276 274 272 271 270 269 266 265
37 38 37 33 34 32 30 23 20 20 17 12 359 350 352 343 321 308 297 290 285 284 286 285 284 286 286 283 279 272 272 272 271 272 276 279 280 279 276 272 272 275 271
38 37 38 34 32 32 25 14 8 5 1 353 346 342 336 328 320 314 310 306 304 304 305 305 300 296 298 299 294 290 285 286 288 283 278 276 277 276 275 275 275 273 271
38 37 34 29 24 20 15 9 6 5 1 357 353 348 343 338 332 326 322 316 314 313 313 312 307 305 305 302 300 299 298 293 286 283 279 275 275 277 277 276 275 274 270
33 32 33 35 30 20 14 8 3 0 356 357 351 342 341 339 331 326 324 321 319 316 313 311 309 309 310 307 304 308 303 295 289 282 277 274 274 274 275 274 276 274 274
Height
1513 1516 1519 1522 1525 1528 1531 1533 1535 1537 1539 1541 1543 1545 1546 1547 1548 1549 1550 1551 1552 1553 1554 1554 1555 1556 1556 1557 1557 1557 1558 1558 1557 1557 1557 1557 1556 1556 1555 1554 1553 1552 1551
1511 1514 1517 1520 1523 1526 1528 1531 1533 1535 1537 1539 1541 1542 1544 1545 1546 1547 1548 1549 1550 1551 1552 1552 1553 1553 1554 1554 1555 1555 1555 1555 1555 1554 1554 1554 1553 1552 1551 1550 1549 1548 1547
1508 1511 1514 1517 1520 1523 1525 1528 1530 1532 1534 1536 1538 1539 1541 1542 1544 1545 1546 1547 1548 1548 1549 1550 1550 1551 1551 1552 1552 1552 1552 1552 1551 1551 1550 1550 1549 1548 1547 1546 1545 1544 1543
1506 1509 1511 1514 1517 1520 1523 1525 1528 1529 1531 1533 1535 1536 1538 1539 1541 1542 1543 1544 1545 1546 1546 1547 1547 1547 1548 1548 1548 1548 1549 1548 1548 1547 1546 1546 1545 1544 1543 1542 1541 1540 1539
1502 1505 1508 1511 1514 1517 1520 1522 1524 1526 1528 1530 1532 1533 1535 1536 1537 1538 1540 1541 1541 1542 1543 1544 1544 1544 1544 1545 1545 1545 1545 1544 1544 1543 1542 1541 1541 1540 1539 1538 1536 1534 1533
1497 1500 1504 1507 1510 1513 1516 1518 1521 1523 1525 1526 1528 1529 1531 1532 1534 1535 1536 1537 1538 1539 1539 1540 1540 1540 1540 1540 1540 1540 1540 1540 1539 1539 1538 1537 1536 1536 1535 1533 1531 1529 1527
1493 1497 1500 1503 1506 1509 1511 1514 1516 1518 1520 1522 1523 1525 1526 1528 1530 1531 1532 1533 1534 1534 1535 1535 1535 1535 1536 1536 1536 1536 1535 1535 1535 1534 1532 1531 1531 1531 1530 1528 1526 1524 1522
1489 1493 1496 1499 1501 1504 1507 1509 1511 1513 1515 1517 1518 1520 1522 1523 1525 1526 1528 1528 1528 1529 1530 1530 1530 1530 1530 1531 1530 1530 1529 1529 1529 1528 1527 1526 1526 1525 1524 1522 1521 1518 1516
1485 1488 1491 1494 1497 1498 1501 1503 1506 1508 1510 1511 1513 1515 1517 1518 1520 1521 1523 1523 1523 1523 1524 1525 1525 1525 1525 1525 1524 1523 1523 1522 1523 1522 1521 1520 1519 1519 1518 1516 1514 1512 1509
1480 1483 1487 1490 1492 1494 1496 1499 1501 1503 1505 1507 1508 1510 1511 1513 1515 1516 1517 1517 1517 1518 1518 1519 1519 1519 1519 1518 1517 1516 1515 1515 1515 1514 1513 1512 1511 1511 1510 1509 1507 1505 1502
1478 1481 1484 1486 1488 1490 1492 1494 1496 1498 1500 1501 1502 1504 1505 1507 1509 1510 1510 1510 1511 1511 1511 1512 1512 1512 1512 1511 1510 1509 1508 1508 1507 1506 1505 1504 1503 1502 1501 1500 1499 1497 1495
1475 1478 1481 1483 1485 1486 1488 1490 1492 1493 1494 1495 1497 1498 1499 1500 1502 1503 1504 1504 1505 1505 1505 1505 1505 1505 1505 1504 1503 1503 1502 1501 1499 1497 1496 1495 1494 1493 1492 1491 1490 1489 1487
1473 1475 1478 1480 1482 1483 1484 1486 1488 1489 1490 1491 1492 1492 1493 1494 1495 1497 1498 1498 1498 1499 1499 1499 1499 1498 1498 1497 1496 1495 1494 1493 1491 1489 1487 1486 1485 1484 1483 1482 1481 1480 1478
1472 1474 1476 1478 1478 1480 1481 1483 1484 1485 1486 1486 1487 1488 1489 1489 1490 1491 1492 1492 1492 1492 1492 1492 1492 1492 1491 1489 1489 1487 1486 1485 1483 1481 1479 1478 1477 1476 1475 1474 1472 1471 1469
1472 1473 1474 1475 1477 1478 1479 1480 1481 1482 1483 1483 1483 1484 1484 1485 1485 1486 1486 1487 1487 1487 1486 1486 1485 1484 1483 1482 1480 1479 1478 1476 1475 1473 1471 1470 1468 1467 1466 1466 1464 1462 1460
1472 1473 1474 1475 1476 1477 1477 1478 1478 1480 1480 1480 1480 1480 1480 1480 1481 1481 1481 1481 1481 1481 1480 1479 1478 1477 1475 1474 1473 1471 1470 1469 1467 1465 1464 1462 1461 1459 1458 1457 1456 1454 1452
1473 1474 1474 1475 1475 1475 1475 1475 1476 1477 1477 1477 1476 1476 1476 1476 1476 1476 1476 1476 1476 1475 1473 1472 1471 1470 1469 1467 1466 1464 1462 1461 1460 1458 1457 1455 1453 1451 1450 1448 1447 1445 1443
1475 1475 1475 1474 1474 1474 1474 1474 1474 1474 1474 1474 1473 1473 1472 1472 1471 1471 1471 1470 1469 1468 1467 1466 1465 1464 1462 1460 1459 1457 1455 1454 1452 1450 1449 1447 1445 1443 1441 1439 1438 1436 1435
1476 1475 1474 1474 1474 1473 1473 1473 1472 1472 1471 1471 1470 1470 1469 1468 1468 1467 1466 1465 1464 1463 1461 1460 1459 1457 1456 1454 1452 1450 1448 1446 1444 1442 1440 1439 1437 1435 1433 1431 1429 1427 1426
1477 1476 1475 1474 1474 1473 1473 1472 1471 1470 1469 1469 1468 1467 1466 1465 1463 1462 1461 1460 1459 1457 1456 1454 1453 1451 1449 1447 1445 1442 1440 1438 1436 1435 1433 1431 1429 1427 1425 1423 1421 1419 1418
1477 1475 1474 1474 1473 1472 1472 1471 1469 1468 1467 1466 1465 1464 1463 1461 1460 1458 1457 1455 1454 1452 1450 1448 1446 1444 1442 1440 1437 1435 1433 1431 1429 1427 1425 1423 1421 1419 1417 1415 1413 1412 1410
1476 1475 1473 1472 1471 1471 1470 1468 1467 1466 1465 1464 1463 1461 1460 1458 1456 1454 1452 1451 1449 1447 1445 1443 1440 1438 1435 1433 1431 1428 1426 1424 1422 1420 1417 1415 1413 1411 1409 1407 1405 1404 1402
1475 1474 1472 1471 1470 1469 1468 1467 1465 1464 1463 1462 1460 1458 1456 1454 1452 1450 1448 1446 1444 1442 1439 1437 1434 1432 1429 1427 1424 1422 1419 1417 1415 1413 1410 1408 1406 1404 1401 1399 1398 1396 1395
1474 1473 1471 1470 1469 1468 1466 1465 1463 1462 1460 1459 1457 1455 1453 1451 1448 1446 1443 1441 1439 1436 1434 1431 1428 1425 1423 1420 1417 1415 1412 1410 1407 1405 1403 1401 1398 1396 1394 1392 1390 1389 1388
1473 1471 1470 1468 1467 1466 1464 1462 1461 1459 1457 1455 1453 1451 1449 1446 1444 1441 1439 1436 1433 1430 1427 1425 1422 1419 1416 1413 1410 1408 1405 1403 1400 1398 1396 1393 1391 1388 1386 1384 1383 1382 1380
1472 1470 1469 1467 1465 1464 1462 1460 1458 1456 1454 1451 1449 1447 1445 1442 1440 1437 1434 1431 1427 1424 1422 1419 1416 1413 1410 1407 1404 1401 1398 1395 1392 1390 1388 1385 1383 1381 1379 1377 1376 1375 1373